Satellite: POLLUX
Catalog number: 35693
Epoch time:      09232.71102154
Element set:      20
Inclination:      051.6417 deg
RA of node:       334.4859 deg
Eccentricity:    0.0003968
Arg of perigee:   087.3868 deg
Mean anomaly:     272.7644 deg
Mean motion:   15.80717099 rev/day
Decay rate:     1.5097e-04 rev/day^2
Epoch rev:             332
Checksum:              307

Satellite: CASTOR
Catalog number: 35694
Epoch time:      09231.70307606
Element set:    0022
Inclination:      051.6431 deg
RA of node:       339.7590 deg
Eccentricity:    0.0004612
Arg of perigee:   093.1860 deg
Mean anomaly:     266.9641 deg
Mean motion:   15.80252898 rev/day
Decay rate:      8.010e-05 rev/day^2
Epoch rev:           00316
Checksum:              280

/EX



_______________________________________________
Via the Keps mailing list courtesy of AMSAT-NA
http://amsat.org/mailman/listinfo/keps

--- ViaMAIL!/WC v1.60d
 * Origin: Chowdanet (401-724-4410) telnet://chowdanet.com  (1:323/120)